TimeCDT,TemperatureF,Dew PointF,Humidity,Sea Level PressureIn,VisibilityMPH,Wind Direction,Wind SpeedMPH,Gust SpeedMPH,PrecipitationIn,Events,Conditions,WindDirDegrees,DateUTC
12:53 AM,82.0,78.1,88,29.94,10.0,Calm,Calm,-,N/A,,Clear,0,2013-08-08 05:53:00
1:53 AM,82.0,78.1,88,29.93,10.0,Calm,Calm,-,N/A,,Partly Cloudy,0,2013-08-08 06:53:00
2:53 AM,81.0,78.1,91,29.92,6.0,Calm,Calm,-,N/A,,Clear,0,2013-08-08 07:53:00
3:53 AM,81.0,78.1,91,29.91,7.0,Calm,Calm,-,N/A,,Clear,0,2013-08-08 08:53:00
4:53 AM,80.1,77.0,90,29.91,5.0,Calm,Calm,-,N/A,,Clear,0,2013-08-08 09:53:00
5:53 AM,80.1,78.1,94,29.91,6.0,Calm,Calm,-,N/A,,Clear,0,2013-08-08 10:53:00
6:53 AM,80.1,78.1,94,29.93,6.0,Calm,Calm,-,0.01,,Partly Cloudy,0,2013-08-08 11:53:00
7:53 AM,84.0,79.0,85,29.94,10.0,ENE,3.5,-,N/A,,Partly Cloudy,60,2013-08-08 12:53:00
8:53 AM,87.1,78.1,74,29.96,10.0,East,4.6,-,N/A,,Mostly Cloudy,90,2013-08-08 13:53:00
9:01 AM,87.8,77.0,70,29.95,10.0,ESE,4.6,-,N/A,,Mostly Cloudy,120,2013-08-08 14:01:00
9:53 AM,89.1,75.9,65,29.96,10.0,ESE,4.6,-,N/A,,Mostly Cloudy,110,2013-08-08 14:53:00
10:53 AM,91.0,75.0,59,29.96,10.0,NE,8.1,-,N/A,,Mostly Cloudy,50,2013-08-08 15:53:00
11:11 AM,89.6,75.2,62,29.97,10.0,ENE,4.6,-,N/A,,Scattered Clouds,70,2013-08-08 16:11:00
11:53 AM,91.9,73.0,54,29.96,10.0,East,6.9,-,N/A,,Scattered Clouds,100,2013-08-08 16:53:00
12:53 PM,84.9,73.0,67,29.96,10.0,ESE,15.0,19.6,N/A,,Partly Cloudy,110,2013-08-08 17:53:00
1:53 PM,86.0,70.0,59,29.94,10.0,ESE,5.8,-,N/A,,Clear,120,2013-08-08 18:53:00
2:53 PM,89.1,75.0,63,29.93,10.0,SSE,9.2,-,N/A,,Clear,150,2013-08-08 19:53:00
3:53 PM,90.0,75.0,61,29.92,8.0,SSE,10.4,-,N/A,,Clear,160,2013-08-08 20:53:00
4:53 PM,90.0,75.0,61,29.91,10.0,SSE,9.2,-,N/A,,Clear,150,2013-08-08 21:53:00
5:53 PM,89.1,77.0,67,29.91,10.0,SE,8.1,-,N/A,,Partly Cloudy,130,2013-08-08 22:53:00
6:53 PM,88.0,75.9,67,29.92,10.0,SE,10.4,-,N/A,,Clear,140,2013-08-08 23:53:00
7:53 PM,87.1,75.9,69,29.92,10.0,SE,6.9,-,N/A,,Scattered Clouds,140,2013-08-09 00:53:00
8:53 PM,86.0,75.9,72,29.94,10.0,ESE,6.9,-,N/A,,Scattered Clouds,120,2013-08-09 01:53:00
9:53 PM,84.9,75.9,74,29.94,10.0,SE,6.9,-,N/A,,Partly Cloudy,130,2013-08-09 02:53:00
10:53 PM,86.0,75.9,72,29.93,10.0,SE,9.2,-,N/A,,Partly Cloudy,130,2013-08-09 03:53:00
11:53 PM,84.9,75.9,74,29.93,10.0,SE,9.2,-,N/A,,Partly Cloudy,130,2013-08-09 04:53:00